Weather Roundup
Issued by NWS Corpus Christi, TX

Home | Current Version | Previous Version | Text Only | Print | Product List | Glossary On
Versions: 1 2 3 4 5 6 7 8 9 10 11 12 13 14 15 16 17 18 19 20 21 22 23 24 25 26 27 28 29 30 31 32 33 34 35 36 37 38 39 40 41 42 43 44 45 46 47 48 49 50
000
ASUS44 KCRP 250810
HRRCRP

SOUTH TEXAS REGIONAL WEATHER ROUNDUP
NATIONAL WEATHER SERVICE CORPUS CHRISTI TX
300 AM CDT SAT OCT 25 2014


TXZ229>244-250900-
...CORPUS CHRISTI AREA OBSERVATIONS...

CITY           SKY/WX    TMP DP  RH WIND       PRES   REMARKS
CORPUS CHRISTI CLEAR     64  61  90 W5        30.13S
NAS CORPUS CHR CLEAR     71  65  81 CALM      30.12S
ROCKPORT       CLEAR     64  60  87 CALM      30.12F
KINGSVILLE NAS CLEAR     62  61  96 W5        30.13S
ALICE          CLEAR     64  59  83 W5        30.13S
FALFURRIAS     CLEAR     62  58  87 W3        30.14S
$$

...VICTORIA AREA OBSERVATIONS...

CITY           SKY/WX    TMP DP  RH WIND       PRES   REMARKS
VICTORIA       CLEAR     60  56  86 CALM      30.13F
BEEVILLE       FAIR      66  61  83 CALM      30.13F
PLEASANTON     CLEAR     63  58  83 CALM      30.15S
SAN ANTONIO    CLEAR     70  59  68 S3        30.16S
$$

...LAREDO AREA OBSERVATIONS...

CITY           SKY/WX    TMP DP  RH WIND       PRES   REMARKS
LAREDO         CLEAR     69  61  76 SE6       30.17S
COTULLA        CLEAR     67  58  72 SE5       30.14S
DEL RIO        CLEAR     67  62  84 E6        30.12S
MCALLEN        CLEAR     66  64  93 CALM      30.13F
HEBBRONVILLE   CLEAR     62  60  91 S5        30.16S
$$

...OTHER TEXAS OBSERVATIONS...

CITY           SKY/WX    TMP DP  RH WIND       PRES   REMARKS
BROWNSVILLE    CLEAR     67  65  93 NW3       30.11F
HOUSTON        CLEAR     59  57  93 CALM      30.13S
COL. STATION   CLEAR     62  56  80 S3        30.13S
AUSTIN         CLEAR     56  56 100 CALM      30.14F
WACO           CLEAR     64  58  80 S9        30.12S
FORT WORTH     PTCLDY    67  58  72 S9        30.09S
WICHITA FALLS  CLEAR     62  57  83 S8        30.06S
LUBBOCK        CLEAR     56  48  74 S6        30.17R
EL PASO        CLEAR     63  48  58 CALM      30.20S
$$

...MARINE OBSERVATIONS...

STATION/POSITION TIME  SKY/WX   TEMP    WIND        PRES    VSBY  WAVE   SWELL
                                AIR SEA DIR/SP/G                  HT/PER HT/PER
                 (UTC)          (F)     (DEG/KT/KT) (MB)    (MI)  (FT/S) (FT/S)
PORT ARANSAS     0800            77 78   80/  7/  7 1020.6F
BUOY 90 E PORT A 0800            76 81   50/ 10/ 10 1020.1F         3/ 7   2/ 7
BUOY 45 SE BAFFI 0800            77 80   70/  8/  8 1019.4F         3/ 8   3/ 8
BUOY 200 E PT IS 0800            75 81   30/ 10/ 12 1018.4F         4/ 8   3/ 8
BUOY 15 E GALVES 0800            73 77   40/  6/  8 1019.6F         1/ 7   2/ 7
$$



USA.gov is the U.S. government's official web portal to all federal, state and local government web resources and services.